IRIDIUM 38

Satellite information

Favourite Embed

Satellite Type and Status

PAYLOADIN ORBIT

Key statistics

Satellite IRIDIUM 38 at a glance.

Uptime

10156

Days in orbit

Revolutions

≈ 14.4

Per day

Orbit

LEO

Low Earth Orbit

Inclination

86.4

Latest

Satellite identification and parameters

Extended collection of information and parameters for IRIDIUM 38.

Object identification

Identified? True

Debris? False

Object name: IRIDIUM 38

International designator: 1997-069E

Object number (NORAD): 25043

Object ID (CCSDS): 25043

Country: UNITED STATES OF AMERICA (US)

Current information (Y/N): Y

RCS size: LARGE

Orbital parameters

Period: 100.127 minutes

Inclination: 86.3991 deg

SMA: 7142.688 km

Apoapsis: 765.865 km

Periapsis: 763.24 km

RAAN: 202.1437 deg

Eccentricy: 0.00018375

Argument of periapsis: 141.5099 deg

Mean anomaly: 218.623 deg

Mean motion: 14.38170071 rev/day

Mean motion (dot): 0.00000643 rev/day2

B* drag term: 0.00020547806 1/REarth

Two-line elements (TLE)

Creation date: Aug. 30, 2025, 3:38 a.m.

Reference frame: TEME

Reference center: EARTH

Epoch: Aug. 29, 2025, 10:07 p.m. UTC

TLE line 0: 0 IRIDIUM 38

TLE line 1: 1 25043U 97069E 25241.92191707 .00000643 00000-0 20548-3 0 9990

TLE line 2: 2 25043 86.3991 202.1437 0001838 141.5099 218.6230 14.38170071456559

Live tracking on map

Real-time ground track for satellite IRIDIUM 38.

In-orbit conjunctions

A list of the most updated potential collisions computed for object IRIDIUM 38.

Target Orbit TCA Probability of collision Miss distance Type
TRANSIT 2A LEO 2025-08-18 06:42:11 0.0001892839 79.0 (m) PAYLOAD
CZ-4 DEB SSO 2025-06-30 07:42:05 0.000344672 619.0 (m) DEBRIS
METEOR 2-8 DEB LEO 2025-05-15 19:54:11 0.000123892 930.0 (m) DEBRIS
DELTA 1 DEB SSO 2025-04-14 23:09:09 0.0002708334 165.0 (m) DEBRIS
SL-16 DEB LEO 2025-03-23 23:42:02 0.0001846849 261.0 (m) DEBRIS

Associated space launch

Iridium provides global mobile telecommunications services using a constellation of 66 low earth orbit satellites in a 86.4° inclined orbit. Although 77 satellites were originally envisioned for the system and spawned the name based on the 77th element in the periodic table, the system has been scaled back. Motorola's Satellite Communications Group designed and manufactured the Iridium satellites with Lockheed Martin providing the LM-700A spacecraft buses.

IRIDIUM 38 was lifted into orbit during the mission ‘Delta II | Iridium 38 to 43’, on board a Delta II space rocket.

The launch took place on Nov. 9, 1997, 1:34 a.m. from Space Launch Complex 2W.

For more information about the launch, click the button.

Launch to space Delta II | Iridium 38 to 43
Delta II | Iridium 38 to 43

Agency: N/A

Status: Launch Successful

Launch date: Nov. 9, 1997, 1:34 a.m. UTC

Rocket: Delta II

Launch pad: Space Launch Complex 2W

Location: Vandenberg SFB, CA, USA

...

Latest news about this satellite

There are no fresh news available about this satellite. Check back as we update our databases every day.


Newsletter sign-up

Weekly statistics, charts and insights to help you stay on top of the space industry.